Location: Evergreen Manor
(41.4083°N, 81.4939°W)
Time: 05:22:26
(UTC+00:00)

Daily predictions for brighter satellites

Satellite Brightness Start Highest point End
(mag) Time Altitude Azimuth Time Altitude Azimuth Time Altitude Azimuth
OAO 3 Rocket 4.1 00:00:28 10° WSW 00:04:49 37° S 00:05:46 34° SSE
YAOGAN 1 2.6 00:02:00 10° S 00:06:19 80° WSW 00:10:40 10° NNW
Okean 1-7 4.5 00:06:21 10° SW 00:10:22 37° WNW 00:14:21 10° N
SL-16 R/B 2.9 00:09:52 10° SW 00:15:24 53° WNW 00:18:37 25° N
Cosmos 2369 Rocket 3.5 00:10:15 10° N 00:12:48 24° N 00:12:48 24° N
BREEZE-M DEB (TANK) 3.8 00:16:20 10° WNW 00:18:14 27° NW 00:18:14 27° NW
Cosmos 1603 4.4 00:16:36 10° S 00:20:29 40° SSE 00:20:29 40° SSE
Lacrosse 5 3.4 00:17:45 10° S 00:20:10 24° S 00:20:10 24° S
CZ-4C R/B 3.7 00:20:53 10° S 00:22:18 19° S 00:22:18 19° S
Cosmos 2237 Rocket 4.5 00:22:29 10° W 00:26:25 19° NW 00:30:22 10° N
Cosmos 1140 Rocket 4.0 00:24:36 10° SW 00:29:37 56° WNW 00:30:44 46° NNW
Meteor 1-19 Rocket 4.4 00:25:06 10° SSW 00:30:35 66° WNW 00:32:36 39° N
Meteor 2-13 Rocket 4.4 00:26:12 10° S 00:32:15 80° W 00:34:38 39° N
Meteor 2-4 Rocket 3.7 00:27:27 10° S 00:32:53 76° SSE 00:32:53 76° SSE
S3M 3.9 00:28:36 10° N 00:34:50 82° W 00:40:57 10° S
Cosmos 2266 Rocket 4.0 00:36:04 10° S 00:41:44 72° S 00:41:44 72° S
Cosmos 1943 Rocket 3.5 00:46:44 10° NNW 00:49:26 29° NNW 00:49:26 29° NNW
Cosmos 1867 4.5 00:49:44 10° NW 00:53:37 44° WNW 00:53:37 44° WNW
CZ-3B R/B 4.3 01:27:17 10° SSW 01:29:41 19° SSW 01:29:41 19° SSW
FALCON 9 R/B 3.6 09:20:06 47° SSE 09:20:10 47° SSE 09:35:11 10° E
USA 234 3.4 09:27:34 10° NE 09:33:27 70° E 09:33:27 70° E
CZ-4C R/B 2.9 09:37:12 87° ESE 09:37:12 87° ESE 09:45:24 10° SSE
Nadezhda 4 Rocket 4.2 09:45:53 54° NNE 09:47:06 66° E 09:53:11 10° SSE
Cosmos 2263 Rocket 3.2 09:45:36 16° S 09:49:45 44° ESE 09:55:01 10° NE
Cosmos 1461 4.1 10:06:07 39° SE 10:06:07 39° SE 10:08:58 10° SE
GEOS 3 Rocket 4.2 10:02:52 10° ESE 10:07:47 50° NE 10:08:48 43° NNE
Cosmos 2227 4.1 10:10:08 67° SSW 10:10:57 89° ESE 10:16:46 10° NNE
Cosmos 676 Rocket 4.0 10:14:44 72° N 10:15:15 83° ENE 10:20:32 10° SSE
Okean 1-7 3.9 10:15:34 35° NNE 10:17:01 50° E 10:21:16 10° SSE
ALOS 3.7 10:15:06 10° NNE 10:19:26 37° E 10:23:45 10° SSE
Cosmos 1954 Rocket 3.9 10:22:53 62° NNW 10:23:48 88° WSW 10:29:06 10° SSE
Cosmos 2084 Rocket 4.3 10:26:58 40° S 10:26:58 40° S 10:30:03 10° SSE
Cosmos 1634 Rocket 4.2 10:21:20 10° S 10:27:29 70° E 10:33:37 10° NNE
Cosmos 1420 Rocket 3.8 10:24:54 25° SSW 10:27:56 84° WNW 10:33:09 10° NNE
Cosmos 2034 Rocket 4.2 10:25:27 10° SSW 10:31:52 48° WNW 10:37:41 10° N
Cosmos 1943 3.1 10:34:49 31° NNW 10:37:39 84° ENE 10:43:16 10° SSE
SL-23 DEB 3.8 10:38:35 55° ENE 10:38:35 55° ENE 10:41:08 10° ENE
STARLINK 1050 3.3 10:43:08 66° NE 10:43:08 66° NE 10:46:37 10° ESE
Meteor 1-25 Rocket 4.1 10:40:39 10° SSW 10:46:13 72° W 10:51:55 10° N
STARLINK 1055 3.2 10:46:09 70° NNE 10:46:15 71° NE 10:49:46 10° ESE
Cosmos 2195 Rocket 4.4 10:39:53 10° N 10:46:16 83° W 10:52:34 10° S
Cosmos 1340 3.1 10:42:54 10° S 10:46:37 60° E 10:50:19 10° NNE
STARLINK 1022 3.1 10:48:49 71° N 10:49:02 75° NE 10:52:34 10° ESE
PAYLOAD B 4.5 10:44:17 10° NNE 10:49:48 72° ESE 10:55:20 10° S
STARLINK 1042 3.1 10:52:03 69° NNW 10:52:24 80° NE 10:55:56 10° SE
Meteor 1-14 Rocket 4.3 10:48:34 10° S 10:54:30 88° W 11:00:32 10° N
Cosmos 1092 Rocket 3.9 10:49:28 10° NNW 10:55:30 57° W 11:01:28 10° S
STARLINK 1056 3.1 10:55:09 65° NW 10:55:37 85° NE 10:59:09 10° SE
Cosmos 1140 Rocket 4.3 10:56:01 31° WSW 10:56:01 31° WSW 11:00:14 10° SSW
COSMO-SKYMED 1 2.5 10:52:28 10° S 10:56:46 65° W 10:59:06 26° NNW
Cosmos 1452 Rocket 3.5 10:51:50 10° SSW 10:57:02 60° WNW 11:02:17 10° NNE
SJ-12 3.8 10:53:35 10° N 10:57:42 70° WNW 11:01:46 10° SSW
STARLINK 1054 3.1 10:58:13 59° NW 10:58:49 89° SW 11:02:21 10° SE
Cosmos 1603 3.9 10:58:02 30° NW 11:00:26 48° WSW 11:05:52 10° S
STARLINK 1062 3.1 11:01:09 54° WNW 11:01:52 84° SW 11:05:24 10° SE
Cosmos 2221 Rocket 3.9 10:59:04 10° N 11:03:28 68° E 11:07:52 10° SSE
Okean 3 4.3 11:00:10 10° N 11:04:16 51° E 11:08:21 10° SSE
Cosmos 1850 Rocket 4.0 10:59:35 13° NNW 11:04:23 87° ENE 11:09:43 10° SSE
STARLINK 1053 3.1 11:04:26 49° WNW 11:05:16 78° SW 11:08:48 10° SE
BREEZE-M DEB (TANK) 3.9 11:01:50 24° W 11:06:00 45° NNW 11:09:22 10° NE
Cosmos 1602 3.7 11:04:04 10° SSW 11:07:48 54° W 11:11:34 10° N
STARLINK 1061 3.1 11:07:15 45° WNW 11:08:12 74° SW 11:11:44 10° SE
GRACE-FO 1 4.5 11:06:01 10° S 11:09:42 73° W 11:13:27 10° N
GRACE-FO 2 4.5 11:06:25 10° S 11:10:06 72° W 11:13:51 10° N
Cosmos 1703 Rocket 4.2 11:09:19 31° WNW 11:10:07 34° W 11:14:05 10° SSW
Okean 1 3.3 11:08:20 23° NNW 11:10:37 55° W 11:14:30 10° S
STARLINK 1067 3.2 11:10:20 40° WNW 11:11:25 69° SW 11:14:55 10° SE
Meteor 1-19 Rocket 4.1 11:06:03 10° N 11:11:36 85° W 11:17:15 10° S
NOAA 6 4.0 11:07:01 10° NNE 11:12:10 86° ESE 11:17:18 10° SSW
Meteor 2-4 Rocket 4.1 11:07:26 10° N 11:12:53 62° ENE 11:18:12 10° SSE
STARLINK 1027 3.0 11:12:40 44° WSW 11:13:01 47° SW 11:15:49 10° SSE
STARLINK 1028 3.0 11:12:59 43° WSW 11:13:20 46° SW 11:16:10 10° SSE
STARLINK 1021 3.0 11:13:05 43° WSW 11:13:26 46° SW 11:16:15 10° SSE
STARLINK 1019 3.1 11:13:24 42° WSW 11:13:48 46° SW 11:16:39 10° SSE
STARLINK 1012 3.1 11:13:38 42° WSW 11:14:00 45° SW 11:16:49 10° SSE
STARLINK 1010 3.1 11:13:53 42° WSW 11:14:17 45° SW 11:17:05 10° SSE
Cosmos 1733 Rocket 3.8 11:10:14 10° S 11:14:26 54° E 11:18:39 10° NNE
STARLINK 1026 3.1 11:14:05 41° WSW 11:14:28 45° SW 11:17:16 10° SSE
STARLINK 1058 3.2 11:13:21 37° WNW 11:14:33 64° SW 11:18:03 10° SE
STARLINK 1013 3.1 11:14:17 41° WSW 11:14:41 44° SW 11:17:29 10° SSE
STARLINK 1009 3.1 11:14:32 41° WSW 11:14:55 44° SW 11:17:44 10° SSE
STARLINK 1015 3.1 11:14:42 40° WSW 11:15:08 44° SW 11:17:55 10° SSE
Okean O Rocket 1.5 11:10:53 10° N 11:15:17 82° WNW 11:19:42 10° SSW
STARLINK 1016 3.2 11:14:57 40° WSW 11:15:23 44° SW 11:18:10 10° SSE
STARLINK 1008 3.2 11:15:10 40° WSW 11:15:36 43° SW 11:18:24 10° SSE
STARLINK 1014 3.2 11:15:23 39° WSW 11:15:49 43° SW 11:18:37 10° SSE
STARLINK 1025 3.2 11:15:36 39° WSW 11:16:02 43° SW 11:18:50 10° SSE
STARLINK 1017 3.2 11:15:48 39° WSW 11:16:16 43° SW 11:19:03 10° SSE
STARLINK 1023 3.2 11:16:06 38° WSW 11:16:33 42° SW 11:19:21 10° SSE
STARLINK 1007 3.2 11:16:14 38° WSW 11:16:41 42° SW 11:19:29 10° SSE
STARLINK 1048 3.2 11:16:16 38° WSW 11:16:43 42° SW 11:19:31 10° SSE
USA 234 3.8 11:10:53 10° NE 11:16:48 38° NNW 11:20:49 19° W
STARLINK 1049 3.2 11:16:41 37° WSW 11:17:09 42° SW 11:19:56 10° SSE
STARLINK 1034 3.3 11:16:47 37° WSW 11:17:20 42° SW 11:20:09 10° SSE
STARLINK 1051 3.3 11:16:53 37° WSW 11:17:23 41° SW 11:20:10 10° SSE
STARLINK 1037 3.3 11:17:05 37° WSW 11:17:36 41° SW 11:20:22 10° SSE
STARLINK 1052 3.3 11:17:10 37° WSW 11:17:41 41° SW 11:20:28 10° SSE
STARLINK 1043 3.3 11:16:26 34° WNW 11:17:45 59° SW 11:21:14 10° SE
STARLINK 1059 3.3 11:17:19 37° WSW 11:17:49 41° SW 11:20:37 10° SSE
STARLINK 1057 3.3 11:17:33 36° WSW 11:18:04 41° SW 11:20:51 10° SSE
STARLINK 1068 3.3 11:17:59 36° WSW 11:18:32 40° SW 11:21:18 10° SSE
STARLINK 1029 3.3 11:18:23 35° WSW 11:18:56 40° SW 11:21:42 10° SSE
STARLINK 1060 3.3 11:18:24 35° WSW 11:18:56 40° SW 11:21:42 10° SSE
STARLINK 1030 3.4 11:18:39 35° WSW 11:19:14 40° SW 11:22:02 10° SSE
STARLINK 1020 3.4 11:18:51 35° WSW 11:19:26 39° SW 11:22:10 10° SSE
STARLINK 1040 3.5 11:19:14 32° WSW 11:19:45 36° SW 11:22:29 10° SSE
STARLINK 1033 3.4 11:19:31 34° WSW 11:20:06 38° SW 11:22:51 10° SSE
STARLINK 1031 3.4 11:19:41 33° WSW 11:20:17 38° SW 11:23:01 10° SSE
STARLINK 1024 3.4 11:19:53 33° WSW 11:20:31 38° SW 11:23:17 10° SSE
STARLINK 1035 3.4 11:20:08 33° WSW 11:20:45 38° SW 11:23:29 10° SSE
STARLINK 1065 3.4 11:19:26 31° WNW 11:20:52 55° SW 11:24:21 10° SE
STARLINK 1032 3.4 11:20:21 33° WSW 11:20:58 38° SW 11:23:42 10° SSE
STARLINK 1011 3.4 11:20:32 32° WSW 11:21:11 38° SW 11:23:57 10° SSE
STARLINK 1036 3.4 11:20:47 32° WSW 11:21:26 37° SW 11:24:09 10° SSE
STARLINK 1047 3.5 11:21:13 32° WSW 11:21:52 37° SW 11:24:35 10° SSE
STARLINK 1063 3.5 11:22:37 28° WNW 11:24:11 51° SW 11:27:37 10° SSE
Starlink Launch 2 leader 4.3 11:25:08 17° SW 11:25:08 17° SW 11:26:41 10° S
CZ-4C R/B 4.1 11:22:27 18° W 11:25:07 22° WSW 11:31:00 10° SSW
Cosmos 1869 Rocket 4.2 11:21:18 10° SW 11:25:11 32° WNW 11:29:07 10° NNW
Cosmos 332 Rocket 4.1 11:22:09 10° S 11:27:01 70° ESE 11:31:55 10° NNE
STARLINK 1064 3.6 11:25:36 26° WNW 11:27:16 48° SW 11:30:42 10° SSE
Starlink Launch 2 trailer 4.4 11:28:41 15° SW 11:28:41 15° SW 11:30:11 10° S
STARLINK 1041 3.7 11:28:42 24° WNW 11:30:29 44° SW 11:33:53 10° SSE
STARLINK 1038 3.8 11:31:48 22° WNW 11:33:42 41° SW 11:37:04 10° SSE
Cosmos 2263 Rocket 3.0 11:29:05 10° WSW 11:33:50 28° NW 11:38:34 10° N
Cosmos 2180 Rocket 4.4 11:29:29 10° SSW 11:35:36 73° W 11:41:46 10° N
Cosmos 1536 3.8 11:32:03 10° S 11:35:59 51° E 11:39:56 10° NNE
STARLINK 1046 3.9 11:34:54 20° WNW 11:36:54 38° SW 11:40:14 10° SSE
Cosmos 2266 Rocket 4.3 11:31:43 10° N 11:37:56 70° E 11:44:00 10° SSE
STARLINK 1039 4.0 11:37:36 19° WNW 11:39:40 36° SW 11:42:54 10° SSE
STARLINK 1044 4.3 11:39:39 17° W 11:40:48 21° SW 11:43:02 10° S
STARLINK 1045 4.1 11:39:05 18° WNW 11:41:13 35° SW 11:44:27 10° SSE
Helios 1A Rocket 3.3 11:40:08 10° N 11:43:55 40° WNW 11:47:40 10° SW
Cosmos 1331 Rocket 3.9 11:39:02 10° SSW 11:44:09 73° WNW 11:49:21 10° NNE
Cosmos 1674 Rocket 3.7 11:41:22 10° N 11:45:44 75° E 11:50:01 10° SSE
SMAP 3.3 11:42:08 10° NNE 11:46:49 76° ESE 11:51:28 10° S
Cosmos 371 Rocket 3.3 11:43:33 10° SSW 11:48:18 58° WNW 11:53:08 10° NNE
Cosmos 44 3.5 11:46:16 10° WSW 11:50:45 41° NW 11:55:04 10° NNE
Meteor 1-13 Rocket 4.2 11:48:27 10° NNW 11:54:00 78° W 11:59:35 10° S
FENGYUN 3A 4.4 11:50:37 10° N 11:55:16 30° WNW 11:59:53 10° SW
